Location: Hilderbrand
(37.5756°N, 89.8540°W)
Time: 11:43:40
(UTC+00:00)

ATLAS 5 CENTAUR R/B - Pass Details

Date: 15 November 2025
Orbit: 373 x 1090 km, 63.3° (Epoch: 05 December)

Event Time Altitude Azimuth Distance (km) Brightness Sun altitude
Rises 23:28:29 0° 333° (NNW) 2,827 5.1 -8.3°
Reaches altitude 10° 23:30:36 10° 339° (NNW) 2,027 4.3 -8.7°
Maximum altitude 23:35:08 51° 55° (NE) 921 2.1 -9.6°
Drops below altitude 10° 23:40:43 10° 131° (SE) 2,492 4.3 -10.6°
Sets 23:43:32 0° 136° (SE) 3,543 5.2 -11.2°
